Location: G�ndlingen
(48.0142°N, 7.6396°E)
Time: 02:57:16
(UTC+00:00)

ATLAS CENTAUR R/B - Pass Details

Date: 05 July 2020
Orbit: 475 x 672 km, 64.7° (Epoch: 13 July)

Event Time Altitude Azimuth Distance (km) Brightness Sun altitude
Rises 21:51:34 0° 315° (NW) 2,566 6.1 -15.7°
Reaches altitude 10° 21:53:50 10° 307° (NW) 1,665 4.7 -15.8°
Maximum altitude 21:57:14 36° 240° (WSW) 777 2.0 -16.0°
Enters shadow 21:58:26 27° 199° (SSW) 934 2.1 -16.1°
